Location: 22
(39.7117°N, 89.5929°W)
Time: 18:47:38
(UTC-05:00)

Gurwin Techsat 1B - Pass Details

Date: 31 March 2023
Orbit: 811 x 813 km, 98.9° (Epoch: 06 June)

Event Time Altitude Azimuth Distance (km) Brightness Sun altitude
Rises 04:10:19 0° 10° (N) 3,346 12.4 -28.6°
Reaches altitude 10° 04:12:40 10° 8° (N) 2,410 11.5 -28.2°
Enters shadow 04:17:16 60° 328° (NNW) 933 8.8 -27.4°
